Preview of NWS' New Version of Forecast
This preview is not operational and should not be used for support decisions.

Regional Weather Roundup (RWR)

Issued by National Weather Service (NWS)

                            
000
ASUS43 KBIS 181010
RWRND 

NORTH DAKOTA REGIONAL WEATHER ROUNDUP
NATIONAL WEATHER SERVICE BISMARCK ND
400 AM CST MON FEB 18 2019

NOTE: "FAIR" INDICATES FEW OR NO CLOUDS BELOW 12,000 FEET WITH NO
SIGNIFICANT WEATHER AND/OR OBSTRUCTIONS TO VISIBILITY.


NDZ001>003-009>011-017-181100-
NORTHWEST NORTH DAKOTA
  
CITY           SKY/WX    TMP DP  RH WIND       PRES   REMARKS
WILLISTON      CLOUDY     4  -1  80 CALM      30.41S                  
MINOT          CLOUDY     2  -4  76 N5        30.42S WCI  -8          
MINOT AFB      CLOUDY     1  -4  81 N5        30.42S WCI  -9          
$$
 
NDZ018>021-031>035-040>046-181100-
SOUTHWEST NORTH DAKOTA
  
CITY           SKY/WX    TMP DP  RH WIND       PRES   REMARKS
BISMARCK       CLOUDY    -3  -7  82 NW3       30.44R                  
DICKINSON      CLOUDY    -3  -9  75 W12       30.33S WCI -21          
GARRISON         N/A     -3  -7  82 N3        30.40R                  
HETTINGER ARPT CLOUDY    -1  -6  79 NW12      30.35S WCI -18          
$$
 
NDZ004>008-012>016-024-026-027-054-181100-
NORTHEAST NORTH DAKOTA
  
CITY           SKY/WX    TMP DP  RH WIND       PRES   REMARKS
GRAND FORKS    CLEAR     -7 -12  79 NW9       30.45R WCI -24          
GRND FRKS AFB  CLEAR     -5 -11  75 N9        30.45R WCI -22          
DEVILS LAKE    PTCLDY    -9 -13  83 N9        30.43R WCI -26          
$$
 
NDZ022-023-025-028>030-036>039-047>053-181100-
SOUTHEAST NORTH DAKOTA
  
CITY           SKY/WX    TMP DP  RH WIND       PRES   REMARKS
FARGO          CLEAR     -6 -10  83 NW13      30.41R WCI -25          
JAMESTOWN      CLOUDY    -3  -7  82 NW13      30.40R WCI -22          
$$